• In Hungary
  • List of Countries
  • For 7 days
  • Water Temperature
  • Satellite Maps
  • Weather Map
  • News
  • Weather Widgets
  • user-avatar
    Login

    Hourly Weather Jacksonville

    Today, 19 February, Monday

    Time Temperature Precipitation Wind Pressure Humidity
    00:00 +19°C° 0 mm 2 mps 769 mmHg 95%
    01:00 +18°C° 0 mm 2 mps 769 mmHg 97%
    02:00 +18°C° 0 mm 2 mps 768 mmHg 97%
    03:00 +19°C° 0 mm 1 mps 768 mmHg 97%
    04:00 +19°C° 0 mm 1 mps 768 mmHg 98%
    05:00 +19°C° 0 mm 1 mps 769 mmHg 98%
    06:00 +19°C° 0 mm 1 mps 769 mmHg 98%
    07:00 +19°C° 0 mm 1 mps 769 mmHg 98%
    08:00 +20°C° 0 mm 2 mps 770 mmHg 88%
    09:00 +23°C° 0 mm 2 mps 770 mmHg 78%
    10:00 +25°C° 0 mm 2 mps 770 mmHg 68%
    11:00 +27°C° 0 mm 3 mps 770 mmHg 62%
    12:00 +28°C° 0 mm 3 mps 770 mmHg 55%
    13:00 +29°C° 0 mm 3 mps 770 mmHg 48%
    14:00 +29°C° 0 mm 4 mps 769 mmHg 49%
    15:00 +29°C° 0 mm 4 mps 769 mmHg 50%
    16:00 +28°C° 0 mm 4 mps 769 mmHg 51%
    17:00 +27°C° 0 mm 4 mps 769 mmHg 59%
    18:00 +25°C° 0 mm 3 mps 769 mmHg 68%
    19:00 +22°C° 0 mm 3 mps 769 mmHg 77%
    20:00 +21°C° 0 mm 3 mps 769 mmHg 82%
    21:00 +21°C° 0 mm 3 mps 769 mmHg 87%
    22:00 +20°C° 0 mm 3 mps 770 mmHg 91%
    23:00 +20°C° 0 mm 2 mps 770 mmHg 93%

    Tomorrow, 20 February, Tuesday

    Time Temperature Precipitation Wind Pressure Humidity
    00:00 +20°C° 0 mm 2 mps 770 mmHg 95%
    01:00 +19°C° 0 mm 2 mps 770 mmHg 97%
    02:00 +19°C° 0 mm 2 mps 770 mmHg 98%
    03:00 +19°C° 0 mm 2 mps 770 mmHg 98%
    04:00 +19°C° 0 mm 2 mps 769 mmHg 98%
    05:00 +19°C° 0 mm 2 mps 770 mmHg 98%
    06:00 +19°C° 0 mm 2 mps 770 mmHg 98%
    07:00 +19°C° 0 mm 2 mps 770 mmHg 98%
    08:00 +21°C° 0 mm 3 mps 770 mmHg 87%
    09:00 +25°C° 0 mm 3 mps 771 mmHg 77%
    10:00 +27°C° 0 mm 4 mps 771 mmHg 66%
    11:00 +28°C° 0 mm 4 mps 771 mmHg 61%
    12:00 +29°C° 0 mm 4 mps 771 mmHg 57%
    13:00 +30°C° 0 mm 4 mps 770 mmHg 52%
    14:00 +29°C° 0 mm 4 mps 770 mmHg 54%
    15:00 +29°C° 0 mm 4 mps 770 mmHg 56%
    16:00 +29°C° 0 mm 4 mps 769 mmHg 58%
    17:00 +27°C° 0 mm 4 mps 770 mmHg 64%
    18:00 +26°C° 0 mm 4 mps 770 mmHg 70%
    19:00 +25°C° 0 mm 4 mps 770 mmHg 76%
    20:00 +23°C° 0 mm 4 mps 770 mmHg 80%
    21:00 +23°C° 0 mm 4 mps 771 mmHg 84%
    22:00 +22°C° 0 mm 4 mps 771 mmHg 87%
    23:00 +22°C° 0 mm 4 mps 771 mmHg 89%

    Day after tomorrow, 21 February, Wednesday

    Time Temperature Precipitation Wind Pressure Humidity
    00:00 +22°C° 0 mm 4 mps 771 mmHg 91%
    01:00 +22°C° 0 mm 4 mps 771 mmHg 92%
    02:00 +21°C° 0 mm 3 mps 771 mmHg 94%
    03:00 +21°C° 0 mm 3 mps 771 mmHg 95%
    04:00 +21°C° 0 mm 3 mps 770 mmHg 96%
    05:00 +21°C° 0 mm 3 mps 771 mmHg 97%
    06:00 +20°C° 0 mm 2 mps 771 mmHg 97%
    07:00 +20°C° 0 mm 2 mps 771 mmHg 98%
    08:00 +22°C° 0 mm 3 mps 772 mmHg 89%
    09:00 +25°C° 0 mm 3 mps 772 mmHg 80%
    10:00 +27°C° 0 mm 3 mps 772 mmHg 70%
    11:00 +28°C° 0 mm 3 mps 772 mmHg 65%
    12:00 +29°C° 0 mm 3 mps 772 mmHg 59%
    13:00 +30°C° 0 mm 3 mps 771 mmHg 53%
    14:00 +30°C° 0 mm 3 mps 771 mmHg 54%
    15:00 +30°C° 0 mm 3 mps 770 mmHg 54%
    16:00 +30°C° 0 mm 3 mps 770 mmHg 55%
    17:00 +28°C° 0 mm 3 mps 770 mmHg 62%
    18:00 +26°C° 0 mm 3 mps 771 mmHg 69%
    19:00 +25°C° 0 mm 3 mps 771 mmHg 76%
    20:00 +24°C° 0 mm 3 mps 771 mmHg 80%
    21:00 +22°C° 0 mm 3 mps 772 mmHg 84%
    22:00 +22°C° 0 mm 3 mps 772 mmHg 88%
    23:00 +21°C° 0 mm 3 mps 772 mmHg 91%

    22 February, Thursday

    Time Temperature Precipitation Wind Pressure Humidity
    00:00 +21°C° 0 mm 3 mps 772 mmHg 94%
    01:00 +21°C° 0 mm 3 mps 771 mmHg 97%
    02:00 +20°C° 0 mm 2 mps 771 mmHg 97%
    03:00 +20°C° 0 mm 2 mps 771 mmHg 98%
    04:00 +20°C° 0 mm 2 mps 771 mmHg 98%
    05:00 +20°C° 0 mm 2 mps 771 mmHg 98%
    06:00 +19°C° 0 mm 2 mps 771 mmHg 98%
    07:00 +19°C° 0 mm 2 mps 772 mmHg 98%
    08:00 +21°C° 0 mm 2 mps 772 mmHg 88%
    09:00 +24°C° 0 mm 2 mps 772 mmHg 78%
    10:00 +26°C° 0 mm 2 mps 773 mmHg 68%
    11:00 +27°C° 0 mm 2 mps 772 mmHg 60%
    12:00 +29°C° 0 mm 3 mps 772 mmHg 53%
    13:00 +30°C° 0 mm 3 mps 772 mmHg 46%
    14:00 +30°C° 0 mm 3 mps 771 mmHg 48%
    15:00 +29°C° 0 mm 3 mps 771 mmHg 49%
    16:00 +29°C° 0 mm 3 mps 770 mmHg 50%
    17:00 +27°C° 0 mm 3 mps 770 mmHg 60%
    18:00 +25°C° 0 mm 3 mps 771 mmHg 69%
    19:00 +22°C° 0 mm 3 mps 771 mmHg 78%
    20:00 +22°C° 0 mm 3 mps 771 mmHg 82%
    21:00 +21°C° 0 mm 2 mps 771 mmHg 87%
    22:00 +20°C° 0 mm 2 mps 772 mmHg 92%
    23:00 +20°C° 0 mm 2 mps 771 mmHg 94%

    23 February, Friday

    Time Temperature Precipitation Wind Pressure Humidity
    00:00 +20°C° 0 mm 2 mps 771 mmHg 96%
    01:00 +19°C° 0 mm 2 mps 771 mmHg 98%
    02:00 +19°C° 0 mm 2 mps 771 mmHg 98%
    03:00 +19°C° 0 mm 2 mps 770 mmHg 98%
    04:00 +19°C° 0 mm 2 mps 770 mmHg 98%
    05:00 +19°C° 0 mm 2 mps 770 mmHg 98%
    06:00 +19°C° 0 mm 2 mps 770 mmHg 99%
    07:00 +19°C° 0 mm 2 mps 770 mmHg 99%
    08:00 +21°C° 0 mm 2 mps 771 mmHg 89%
    09:00 +24°C° 0 mm 2 mps 771 mmHg 79%
    10:00 +26°C° 0 mm 3 mps 771 mmHg 70%
    11:00 +27°C° 0 mm 3 mps 771 mmHg 63%
    12:00 +28°C° 0 mm 3 mps 770 mmHg 57%
    13:00 +29°C° 0 mm 3 mps 770 mmHg 50%
    14:00 +29°C° 0 mm 3 mps 769 mmHg 51%
    15:00 +28°C° 0 mm 3 mps 769 mmHg 53%
    16:00 +28°C° 0 mm 4 mps 768 mmHg 54%
    17:00 +26°C° 0 mm 3 mps 768 mmHg 62%
    18:00 +25°C° 0 mm 3 mps 768 mmHg 70%
    19:00 +22°C° 0 mm 3 mps 768 mmHg 78%
    20:00 +21°C° 0 mm 3 mps 768 mmHg 82%
    21:00 +21°C° 0 mm 2 mps 769 mmHg 86%
    22:00 +20°C° 0 mm 2 mps 769 mmHg 90%
    23:00 +20°C° 0 mm 2 mps 769 mmHg 91%

    24 February, Saturday

    Time Temperature Precipitation Wind Pressure Humidity
    00:00 +20°C° 0 mm 2 mps 768 mmHg 93%
    01:00 +19°C° 0 mm 2 mps 768 mmHg 95%
    02:00 +19°C° 0 mm 2 mps 768 mmHg 95%
    03:00 +19°C° 0 mm 2 mps 767 mmHg 96%
    04:00 +19°C° 0 mm 2 mps 767 mmHg 97%
    05:00 +18°C° 0 mm 2 mps 767 mmHg 98%
    06:00 +18°C° 0 mm 2 mps 767 mmHg 98%
    07:00 +18°C° 0 mm 2 mps 767 mmHg 98%
    08:00 +20°C° 0 mm 2 mps 767 mmHg 88%
    09:00 +23°C° 0 mm 2 mps 767 mmHg 78%
    10:00 +26°C° 0 mm 2 mps 767 mmHg 68%
    11:00 +27°C° 0 mm 2 mps 767 mmHg 60%
    12:00 +29°C° 0 mm 3 mps 766 mmHg 52%
    13:00 +30°C° 0 mm 3 mps 765 mmHg 44%
    14:00 +30°C° 0 mm 3 mps 765 mmHg 45%
    15:00 +30°C° 0 mm 3 mps 764 mmHg 47%
    16:00 +30°C° 0 mm 3 mps 764 mmHg 48%
    17:00 +28°C° 0 mm 3 mps 764 mmHg 53%
    18:00 +27°C° 0 mm 3 mps 764 mmHg 58%
    19:00 +25°C° 0 mm 3 mps 764 mmHg 63%
    20:00 +24°C° 0 mm 3 mps 764 mmHg 68%
    21:00 +22°C° 0 mm 3 mps 764 mmHg 72%
    22:00 +21°C° 0 mm 3 mps 764 mmHg 77%
    23:00 +21°C° 0 mm 3 mps 764 mmHg 80%
    Show more